GFSNGP_250_spd_024.txt.gz
Wind_Speed
83 76 69 62 60 55 52 53 51 46 46 45 38 35 34 43 55 57 56 55 51 49 47 43 43 43 42 42 42 41 42 43 45 43 44 43 42 41 41 40 39 39 40 40
82 79 76 69 63 59 58 55 54 53 52 51 44 39 40 39 45 56 60 58 57 54 52 50 48 46 45 44 44 44 44 45 44 44 45 44 44 43 45 44 44 45 46 47
87 87 82 75 65 64 63 60 56 52 54 55 48 40 40 41 39 42 50 58 60 59 57 55 54 53 52 49 46 46 45 46 47 47 49 48 48 50 51 51 51 52 53 54
93 88 86 76 76 71 70 68 63 55 52 54 49 39 34 37 40 40 40 41 49 56 53 56 57 54 53 51 50 50 49 50 52 54 53 52 53 55 56 56 57 58 60 61
95 87 88 85 81 76 76 72 66 59 53 52 51 46 39 38 42 43 41 38 36 37 38 42 47 53 58 59 59 58 57 57 56 57 58 56 53 55 56 57 54 52 52 53
98 91 90 89 86 81 78 77 74 65 62 58 56 53 53 51 42 37 39 39 37 38 38 38 37 37 38 42 44 45 46 46 43 42 40 42 41 40 38 39 41 45 45 47
101 97 93 92 88 84 85 87 81 72 66 62 59 56 56 53 51 45 41 43 43 41 41 41 40 41 41 39 41 39 37 36 37 38 38 37 38 38 39 40 44 46 47 50
103 100 96 92 89 89 91 86 83 77 70 66 64 59 61 60 58 53 49 49 47 46 46 47 45 43 42 42 42 40 39 40 40 41 41 40 38 39 43 40 44 48 50 53
98 98 96 94 94 92 91 89 88 84 77 72 68 66 64 64 64 60 56 53 52 52 52 52 51 48 48 48 48 48 48 48 47 48 47 46 46 47 45 48 52 52 51 55
91 93 94 93 92 95 95 92 91 91 85 80 74 69 67 67 67 66 61 60 60 57 56 56 56 57 57 57 57 57 56 54 55 54 53 52 52 51 50 51 56 57 53 56
85 89 94 99 99 100 100 97 93 91 90 85 81 75 73 70 70 70 69 66 63 62 63 62 61 61 60 61 62 63 64 64 63 61 59 58 57 55 53 54 58 60 58 58
82 88 90 95 104 99 96 97 96 93 93 91 88 84 81 77 75 75 74 73 71 68 66 66 67 68 68 67 67 68 68 68 66 65 67 66 63 61 58 59 60 62 59 61
91 86 84 89 93 99 100 101 101 97 96 94 91 91 87 84 82 80 78 76 75 75 74 72 72 73 75 75 74 73 73 73 72 72 72 71 69 66 64 63 64 64 62 61
96 90 84 86 88 92 97 101 101 101 98 97 95 93 92 90 86 81 80 80 80 80 79 78 78 79 81 81 82 82 82 81 80 79 76 73 71 68 70 69 63 62 61 59
103 96 95 84 81 84 89 96 100 102 102 102 101 97 94 93 88 84 82 82 81 80 80 81 82 83 82 85 87 87 86 86 86 83 80 78 77 75 77 71 67 66 66 63
95 96 93 88 80 78 83 88 96 100 99 101 103 102 94 92 89 87 86 83 82 82 83 85 87 87 85 86 87 87 87 88 88 87 85 83 82 82 80 74 74 70 68 62
79 86 86 84 86 82 81 84 88 93 98 105 102 101 101 96 92 91 86 87 91 89 88 88 87 86 85 88 89 88 88 89 90 89 89 86 87 84 77 73 75 73 71 61
52 67 86 93 91 95 91 86 89 89 94 98 102 105 101 98 94 86 92 98 99 95 89 87 88 86 87 87 89 88 89 89 88 84 84 86 85 86 86 83 72 71 66 52
36 49 65 82 92 88 87 90 89 90 92 96 96 99 101 100 99 100 90 92 101 97 95 95 90 90 87 89 92 95 99 95 94 92 88 88 86 85 85 85 86 80 83 59
38 45 56 68 83 92 95 97 99 95 97 101 97 94 93 95 100 103 103 106 101 98 97 92 95 97 94 89 94 97 98 98 99 102 98 92 90 92 91 87 81 81 75 65
43 45 50 51 59 75 91 95 93 100 103 98 95 93 91 94 98 97 99 104 101 99 100 97 95 95 96 97 92 87 95 98 97 99 95 96 95 89 83 85 84 82 70 70
45 52 50 50 50 54 63 72 75 86 95 97 96 98 101 100 103 103 105 103 101 100 99 97 96 96 97 97 98 97 100 101 97 96 95 94 87 79 87 69 59 56 61 68
31 47 50 45 48 42 50 57 60 58 59 77 89 89 94 108 113 109 105 103 104 102 100 99 101 100 103 103 102 102 101 98 96 92 87 89 85 86 81 67 64 62 59 60
20 37 47 41 43 44 52 58 58 60 64 66 74 77 79 87 99 105 107 107 106 106 108 106 103 103 96 96 96 94 93 97 93 87 79 77 78 81 72 72 70 67 64 62
47 42 49 47 51 56 57 60 64 63 65 67 71 74 75 73 70 69 72 80 85 87 88 93 102 97 94 93 91 89 89 86 87 84 83 86 88 89 75 70 67 67 64 64
51 51 52 52 56 61 66 64 73 70 68 68 68 70 68 71 70 72 76 79 81 86 90 92 94 93 94 93 93 93 93 89 90 90 89 89 94 89 77 70 71 72 71 69
47 49 53 54 54 53 57 70 79 74 76 76 74 70 71 76 79 80 82 85 87 89 90 93 95 98 101 103 102 98 95 94 87 86 86 96 89 88 80 78 78 77 78 77

GFSNGP_250_spd_027.txt.gz
Wind_Speed
85 83 79 69 67 62 57 56 52 50 49 45 37 36 44 55 57 60 55 52 48 45 41 43 43 43 44 43 42 40 38 36 38 35 34 36 37 37 40 39 38 38 38 37
91 86 75 67 64 63 62 61 61 55 51 54 45 40 39 47 59 62 62 58 54 51 49 44 45 49 47 44 42 40 40 40 39 39 39 41 41 41 44 42 40 41 41 44
89 85 77 73 69 68 66 64 63 58 58 59 55 49 44 41 44 55 64 62 58 55 53 51 49 48 47 46 44 43 42 41 38 41 43 43 42 42 42 42 44 47 48 50
90 91 81 75 80 78 73 70 70 65 62 60 61 58 45 41 40 42 50 62 64 61 59 56 56 54 52 50 49 47 45 44 44 45 45 44 44 45 46 47 49 51 53 56
95 92 84 83 86 84 77 73 74 71 67 65 64 60 52 48 47 48 42 43 54 63 63 61 60 59 58 56 54 52 52 51 49 48 48 48 49 48 50 51 53 53 47 45
98 96 92 93 93 86 80 76 75 73 69 65 63 59 62 48 46 43 38 37 38 42 54 65 66 64 63 63 60 59 59 57 53 51 53 53 52 52 52 46 43 37 39 39
98 98 95 98 93 89 86 90 81 77 71 64 61 62 58 52 48 49 48 46 42 39 40 43 47 54 63 67 67 67 62 59 54 51 53 52 46 42 38 36 32 34 36 38
100 100 98 97 94 94 93 88 79 75 70 65 58 57 61 58 51 48 48 47 43 40 40 39 39 41 43 44 47 49 49 46 47 46 44 42 39 36 35 35 34 37 38 41
103 99 99 98 92 91 89 87 81 75 75 71 67 63 61 60 60 58 53 47 44 43 41 40 42 43 43 44 45 46 44 43 43 42 42 42 41 41 40 40 40 43 44 46
92 93 97 94 88 85 88 88 85 83 82 77 73 69 66 65 63 62 60 59 54 50 47 47 46 47 49 49 50 49 48 47 47 47 47 47 47 46 46 48 49 50 49 48
92 91 91 94 83 82 89 90 93 89 86 82 78 75 73 69 67 68 67 65 60 56 53 53 52 51 52 53 53 52 54 55 54 54 54 54 54 53 55 55 54 56 57 57
97 94 87 89 96 95 94 94 96 94 92 89 85 81 77 73 72 71 70 70 67 65 62 58 58 59 59 57 58 58 59 60 60 61 61 60 60 60 60 60 58 59 61 62
101 97 92 85 86 91 94 94 93 96 97 93 89 84 82 79 77 75 74 74 73 71 67 66 64 63 63 63 63 64 65 65 65 66 64 64 64 64 65 64 65 66 66 66
100 96 89 88 83 88 90 90 94 96 98 96 92 89 86 86 84 82 79 77 76 76 73 71 69 68 68 68 68 68 68 69 68 69 69 70 71 73 73 72 71 72 73 73
100 98 98 93 85 83 90 92 91 91 92 95 96 94 93 92 90 88 85 82 79 78 78 78 77 76 76 76 75 76 76 76 76 74 74 75 77 79 78 78 77 78 78 76
98 99 98 93 90 84 85 89 91 93 94 96 98 99 98 98 95 94 91 87 86 84 83 83 83 83 83 83 82 82 82 83 81 79 77 78 78 79 80 80 79 77 80 78
89 91 89 90 89 85 83 87 92 96 97 96 96 99 100 105 99 98 97 95 93 91 89 87 87 87 88 88 89 88 88 87 85 85 84 83 83 82 82 82 81 81 82 81
75 83 82 80 82 82 82 85 86 91 99 101 101 103 106 102 103 99 101 99 97 95 94 93 93 91 91 90 89 88 88 86 85 86 86 85 85 84 85 83 83 82 80 79
43 59 73 79 79 79 80 81 84 88 89 93 100 106 103 103 106 108 102 102 98 97 97 96 96 96 95 96 96 94 92 92 94 89 90 90 89 87 85 87 85 83 82 85
32 39 53 67 78 84 86 84 85 85 84 85 90 95 98 101 108 108 104 106 103 101 104 102 100 100 100 102 99 98 94 94 96 96 97 96 97 97 97 98 97 96 94 96
31 40 47 59 74 84 90 89 89 85 85 84 87 86 81 74 59 92 103 106 103 92 87 93 106 113 113 113 109 105 104 103 97 95 99 99 97 96 97 96 100 97 97 96
36 32 39 54 65 78 88 94 93 91 88 89 90 88 93 102 105 101 97 102 107 112 100 98 102 105 109 109 110 110 108 106 107 108 104 103 101 102 104 101 102 103 100 95
43 43 36 42 53 62 74 89 95 97 97 98 96 97 104 103 102 102 98 98 102 107 109 110 117 115 111 112 112 110 111 112 112 110 108 105 105 105 106 102 102 101 99 100
47 46 44 46 50 54 61 68 77 87 91 101 104 105 106 107 107 107 103 102 102 103 105 107 108 109 109 109 107 105 105 107 107 106 105 105 105 105 105 104 104 103 104 98
50 51 47 44 52 49 56 65 69 71 73 87 96 102 103 108 108 109 108 109 107 109 111 114 114 118 113 110 107 110 113 110 109 108 108 111 110 104 106 107 106 101 100 96
57 57 55 52 51 54 58 67 76 80 79 76 80 88 95 96 97 98 108 112 112 113 116 114 113 115 115 111 110 113 112 113 113 112 111 106 108 108 109 104 98 96 90 85
59 64 65 62 61 61 62 63 73 86 89 80 80 77 79 83 85 84 85 91 102 107 110 113 113 113 114 116 116 114 111 104 101 99 96 101 104 103 96 93 92 94 87 84

GFSNGP_250_spd_033.txt.gz
Wind_Speed
82 78 77 75 72 68 58 60 56 60 52 49 45 43 42 41 42 47 49 51 53 50 44 39 35 34 39 45 48 50 48 46 43 39 35 32 30 31 31 28 26 31 33 33
86 85 83 82 77 70 67 66 64 64 55 53 51 45 42 42 40 43 47 47 54 53 50 45 41 37 40 46 49 51 51 48 43 41 37 34 34 34 34 31 30 33 34 35
89 90 91 84 74 71 69 69 66 64 59 56 55 51 49 44 46 46 43 46 50 55 52 48 46 40 37 44 48 49 52 48 46 42 37 35 35 36 34 35 35 36 37 37
96 94 88 78 76 71 70 71 70 72 72 62 64 63 50 47 44 46 42 42 44 49 53 50 48 44 38 38 45 49 50 50 47 43 39 37 38 36 36 36 39 39 38 38
99 95 81 84 87 81 79 82 80 82 80 77 74 60 47 46 43 43 39 31 35 43 52 53 49 44 40 37 37 42 48 49 47 45 42 39 40 40 39 39 39 37 35 38
93 91 91 96 89 84 84 85 81 86 87 83 70 60 50 47 44 42 40 32 29 37 45 55 53 50 47 43 43 44 49 51 48 43 42 42 43 44 42 41 41 41 41 43
93 95 95 95 92 89 92 92 86 90 93 83 62 49 47 48 49 45 42 39 34 31 40 48 56 55 50 49 49 50 47 42 41 41 43 45 45 45 46 44 44 46 47 46
94 94 99 102 99 97 93 92 91 93 95 81 58 47 50 51 54 50 46 44 38 33 31 32 41 53 56 54 54 53 50 47 46 47 48 48 49 50 49 48 48 49 50 52
100 105 103 104 103 101 98 98 95 94 93 76 57 51 53 51 55 51 49 50 47 43 37 34 34 36 44 54 60 58 55 53 54 54 54 53 52 52 50 51 51 50 48 46
103 105 105 104 105 102 101 100 98 93 86 74 60 58 61 58 59 55 54 56 60 51 45 40 41 42 40 38 41 50 56 60 60 58 57 55 55 54 53 52 47 43 41 40
108 106 101 104 102 100 103 105 102 94 84 75 67 65 66 65 62 63 63 62 61 59 54 51 51 50 47 46 43 40 38 41 44 44 45 48 50 50 47 44 42 42 41 40
107 102 100 101 100 98 98 103 100 90 82 76 73 71 71 69 71 74 67 63 60 58 57 58 55 54 55 55 51 47 45 45 45 45 44 45 44 42 43 42 42 42 42 44
103 101 97 96 96 94 89 86 87 82 78 76 74 76 75 77 75 70 67 65 62 62 61 59 57 55 58 60 59 56 55 54 52 49 50 49 49 48 48 47 45 47 51 51
111 109 103 102 96 92 84 84 84 83 84 82 81 85 85 81 78 76 75 73 68 65 65 64 61 59 58 60 61 63 61 58 58 55 54 55 53 52 51 52 54 55 56 55
110 112 108 110 103 96 91 88 88 83 87 91 91 93 91 86 85 84 81 78 75 69 67 67 66 63 62 62 62 62 63 62 61 59 56 56 55 54 54 54 56 57 59 59
100 105 105 107 103 95 90 88 85 87 87 92 96 97 93 88 87 90 87 83 80 77 74 72 71 69 67 68 69 68 67 66 64 64 64 63 62 62 62 62 63 63 64 64
93 100 107 107 105 98 90 87 80 83 87 89 99 97 94 91 91 90 87 85 83 81 79 77 76 75 74 74 74 76 73 71 71 70 70 70 70 70 70 70 69 69 69 70
69 83 98 105 107 104 96 88 83 83 83 87 92 96 96 94 92 91 87 86 86 85 82 83 81 81 82 79 79 79 78 79 78 79 78 77 77 77 76 76 76 76 76 77
46 61 80 95 102 103 101 94 94 89 86 85 88 89 94 97 93 93 92 91 93 91 89 88 89 90 86 85 85 85 84 84 84 83 83 83 84 84 84 84 85 84 84 84
32 40 53 70 88 100 103 103 98 94 89 86 85 84 87 92 96 96 93 94 96 96 97 96 95 94 91 97 91 87 87 89 90 90 91 90 90 90 90 91 93 93 93 94
18 27 38 50 63 80 94 98 97 94 90 87 84 82 84 88 91 97 98 95 96 100 102 100 99 100 99 99 97 96 96 96 94 93 93 94 95 95 96 98 99 99 99 99
9 20 27 38 47 57 69 82 91 95 96 94 92 88 85 85 89 93 94 95 97 99 99 102 103 100 104 103 103 101 99 100 101 99 99 98 98 100 102 104 102 101 101 101
5 5 17 25 36 46 54 65 78 86 94 100 101 97 91 89 90 87 88 90 94 97 100 101 103 100 109 103 103 102 101 101 99 100 101 102 104 108 109 110 106 105 109 110
11 8 8 13 22 34 46 54 64 77 89 97 100 97 94 96 91 90 88 85 87 89 87 86 91 101 105 104 106 105 104 100 98 101 104 104 106 110 116 112 109 107 107 108
23 20 17 16 15 26 37 47 56 69 81 91 97 98 100 103 102 94 91 93 87 90 87 74 82 90 90 93 96 102 103 103 101 100 99 100 106 107 107 102 103 95 89 91
36 33 32 29 28 27 33 41 50 59 69 80 89 94 99 105 105 103 102 99 93 94 96 91 98 100 96 93 93 92 94 92 94 98 95 98 99 96 98 102 104 106 103 103
46 42 41 43 41 40 40 45 47 49 60 72 80 88 96 102 104 104 106 104 104 106 107 106 107 107 102 98 97 95 93 90 91 90 93 100 104 103 100 103 107 112 115 116

GFSNGP_250_spd_036.txt.gz
Wind_Speed
96 90 85 78 74 73 68 65 64 69 65 58 58 54 50 52 48 42 45 48 49 52 58 51 45 39 33 36 39 47 48 49 47 46 44 41 39 36 30 28 28 26 26 26
92 92 87 80 76 70 67 67 71 73 66 61 59 56 53 55 50 46 44 45 48 49 53 52 45 42 38 37 39 46 51 51 50 48 47 42 42 38 34 33 31 31 33 32
95 95 90 85 82 75 71 75 76 76 69 63 63 58 55 55 49 43 42 42 47 51 50 56 52 48 42 38 39 44 50 53 53 51 48 44 42 40 38 35 34 33 34 33
94 97 94 89 85 81 82 85 84 78 77 73 67 63 55 51 42 40 38 38 38 47 53 57 57 50 45 40 36 40 44 53 53 53 50 45 44 43 41 36 34 36 36 35
95 95 94 91 87 86 84 85 84 81 81 71 66 58 53 49 43 43 40 41 38 39 46 55 58 54 49 45 42 37 38 51 56 53 52 48 48 46 43 38 39 38 38 38
93 96 95 95 93 92 86 85 86 87 84 73 65 58 54 50 46 46 43 38 37 36 40 48 53 57 53 48 45 43 40 44 52 51 51 51 48 46 44 43 42 43 42 40
95 96 94 95 97 92 92 89 86 88 86 72 61 55 52 50 48 47 44 40 38 36 34 40 47 54 56 52 50 51 47 43 44 50 52 52 50 47 50 49 48 47 45 43
93 95 93 94 97 96 95 91 88 88 85 67 57 55 53 51 47 49 48 46 44 41 34 34 42 51 56 56 53 51 48 45 43 41 44 48 51 52 52 50 49 47 46 45
97 95 92 94 96 96 90 88 87 89 83 69 60 58 56 54 54 51 49 48 45 43 40 34 33 43 52 58 59 56 53 51 49 47 45 46 47 48 49 48 47 46 48 49
97 93 91 91 93 92 94 91 89 87 82 73 66 62 59 56 54 55 55 52 48 45 45 44 41 39 41 47 54 57 56 54 51 50 50 50 51 51 50 49 49 51 52 51
98 95 91 90 92 91 94 94 92 87 82 75 67 65 63 60 57 58 60 55 52 51 52 50 48 44 42 40 39 40 45 53 59 59 57 56 56 55 55 55 56 56 56 57
100 98 96 92 91 94 92 92 94 90 85 81 73 68 66 66 64 62 63 61 59 61 58 57 55 52 49 46 43 39 38 39 40 44 52 58 60 61 62 63 64 64 64 63
99 100 99 96 95 92 95 101 95 94 88 87 82 78 73 71 68 70 65 66 69 66 62 59 60 57 56 52 48 48 44 44 44 44 43 43 45 49 52 52 52 49 46 42
101 101 100 99 97 98 94 103 99 99 92 91 89 85 82 79 77 75 75 73 75 60 59 62 61 62 62 61 59 57 55 55 53 53 51 47 47 48 47 46 47 48 48 47
98 103 105 104 103 100 104 96 88 102 91 92 94 91 86 84 82 80 79 79 79 72 69 68 67 66 65 64 62 60 58 58 60 60 58 57 57 56 55 53 53 54 54 53
101 107 109 107 107 106 104 102 101 94 89 93 97 94 90 89 86 84 86 87 84 81 78 75 73 72 69 67 65 63 60 60 61 62 62 64 63 61 60 60 59 60 58 56
96 107 115 116 113 113 112 110 102 99 100 96 89 92 91 94 91 91 93 90 88 84 81 80 79 76 74 72 69 68 67 65 63 65 66 65 65 67 66 64 64 64 63 63
81 94 107 115 118 117 116 112 108 105 103 102 99 90 88 90 92 94 93 91 87 85 82 81 82 79 77 77 75 74 72 70 69 68 70 70 69 69 70 71 71 71 71 71
54 69 86 101 110 113 115 111 110 104 97 95 93 89 84 85 91 95 93 91 89 87 84 85 86 84 83 82 82 81 79 77 74 74 74 75 74 74 76 77 79 79 80 80
32 45 58 76 94 105 110 110 110 105 99 95 93 89 86 87 88 92 94 96 95 93 92 90 90 90 89 88 87 87 85 82 81 82 81 80 81 81 81 82 84 86 87 87
17 31 42 52 67 83 99 106 108 107 102 100 96 93 91 87 88 90 92 96 96 96 96 95 94 93 93 93 91 89 89 86 87 87 88 88 88 88 88 88 89 89 90 90
17 22 31 41 52 64 77 91 101 107 106 102 100 94 90 86 84 86 91 92 96 98 99 99 97 97 97 98 95 93 91 90 92 92 93 94 95 96 96 96 96 97 98 97
19 20 26 31 41 52 61 72 83 93 99 101 99 96 93 89 88 85 88 93 93 98 100 100 102 100 102 99 98 96 93 88 93 101 104 100 98 99 101 101 101 102 103 104
25 21 21 24 33 35 44 55 64 74 83 91 96 98 98 95 93 90 88 88 93 96 98 101 102 104 102 101 101 101 97 91 98 92 82 88 97 103 105 105 107 109 109 106
32 29 24 23 24 31 33 39 49 58 68 77 86 95 102 102 100 97 95 92 90 92 95 98 101 103 104 103 103 103 102 98 100 105 109 109 106 105 105 104 105 107 107 108
40 38 33 29 27 27 29 32 37 47 54 65 75 86 99 103 102 102 101 100 97 95 94 93 94 96 99 98 98 98 98 101 100 101 105 103 103 101 97 92 93 92 93 95
46 45 43 40 37 32 33 33 35 39 47 56 63 74 85 95 100 102 103 109 103 103 98 95 95 96 94 94 93 93 93 94 95 97 99 99 96 93 94 94 94 94 93 93

GFSNGP_250_spd_039.txt.gz
Wind_Speed
108 106 97 91 90 86 79 71 67 77 72 71 70 66 57 51 51 52 52 49 45 43 47 51 51 46 42 37 34 41 42 43 43 41 44 43 40 37 37 35 32 29 27 24
102 104 97 95 95 88 83 77 75 81 76 77 69 63 56 54 52 53 54 51 45 45 44 47 50 51 50 43 39 37 42 45 43 43 45 47 43 40 39 39 36 32 30 28
100 105 104 103 95 89 85 80 78 79 81 74 70 66 57 55 53 53 53 49 43 43 43 44 49 55 56 47 42 39 38 41 45 47 47 45 43 44 42 40 38 36 33 32
104 103 107 104 97 93 86 80 78 80 79 74 70 63 56 57 54 52 49 48 45 44 44 45 47 51 56 52 47 42 36 39 41 48 51 48 47 45 44 41 40 39 38 36
108 105 106 106 101 95 87 83 79 82 78 73 70 62 57 56 52 51 48 46 46 47 47 45 48 50 55 56 49 44 40 38 40 43 47 51 50 47 43 42 41 40 40 39
107 105 104 105 100 94 91 87 81 84 77 71 67 61 55 54 51 50 47 47 48 46 44 42 46 48 49 55 53 49 47 45 40 39 41 48 52 50 46 43 44 43 43 42
107 103 100 101 100 96 96 88 85 83 79 70 65 60 56 55 51 51 49 49 50 47 44 42 42 47 51 55 59 58 52 48 45 40 38 41 48 52 50 48 47 48 47 47
105 100 96 97 98 96 92 88 85 84 81 71 63 60 57 56 53 51 50 50 51 48 45 43 43 45 48 52 57 60 56 53 50 47 41 40 42 51 51 50 52 51 52 51
104 101 96 92 93 93 92 89 86 85 82 72 64 61 59 58 55 53 54 54 54 51 49 45 43 42 44 48 53 57 59 57 54 50 46 41 36 39 49 53 54 55 55 55
99 100 97 89 90 92 91 88 87 86 81 74 69 67 61 60 59 59 59 60 58 55 53 51 48 44 44 46 50 55 57 56 55 53 50 48 46 44 44 47 50 52 54 54
99 98 94 89 88 89 91 89 89 87 83 78 73 72 67 63 62 63 63 63 62 59 57 53 49 48 46 44 45 50 55 57 56 55 52 50 49 50 49 49 47 47 48 47
98 99 97 92 89 87 88 89 90 86 85 80 77 75 73 69 66 65 67 65 63 62 60 57 55 50 50 46 42 40 43 50 56 58 58 56 56 55 54 54 54 54 54 54
98 97 95 91 90 83 82 60 90 90 85 83 83 80 79 77 75 69 69 67 65 64 63 59 57 55 52 51 47 44 41 42 44 45 47 49 54 60 62 59 57 57 58 59
92 92 93 91 89 86 86 82 63 78 89 90 86 86 83 83 80 77 73 72 72 68 66 64 62 59 58 57 55 53 50 48 47 44 40 40 40 40 42 44 48 52 55 56
90 93 95 95 92 90 91 89 81 65 74 87 89 90 88 87 85 84 79 76 73 73 71 69 69 67 63 62 62 60 58 56 54 53 51 50 47 45 45 46 47 48 49 49
97 98 102 101 100 96 93 92 94 92 66 66 86 95 90 91 88 87 86 81 77 77 79 77 75 71 72 70 65 64 64 63 62 61 59 57 56 55 55 54 54 55 56 56
98 102 104 105 107 105 104 101 101 101 98 90 87 91 98 99 96 94 90 87 82 83 82 82 81 77 76 69 70 69 68 68 66 65 65 64 64 63 61 62 62 62 62 62
89 102 108 111 110 110 109 108 107 104 104 102 99 82 90 105 101 99 95 91 88 86 84 85 86 83 81 73 70 68 70 70 70 69 68 68 67 67 65 65 65 66 67 67
67 92 104 110 113 116 117 115 114 111 110 107 107 103 93 102 111 104 102 98 94 92 92 91 92 90 84 80 77 77 76 75 75 74 74 73 71 70 70 70 69 69 69 70
51 66 80 99 105 109 113 116 119 118 116 111 113 113 115 105 101 102 104 103 101 101 98 98 101 95 91 86 86 85 84 83 83 83 81 79 78 77 76 75 75 75 76 75
36 44 58 73 84 102 109 113 116 116 120 118 115 115 118 107 103 101 101 104 105 105 105 103 101 96 92 92 92 92 92 92 92 91 88 87 85 84 83 84 84 84 83 83
28 35 45 53 64 75 91 106 113 116 119 120 117 115 116 107 101 95 97 103 105 106 106 102 100 97 94 94 95 95 96 97 96 96 95 93 92 90 89 89 89 89 89 89
36 33 31 38 49 61 68 80 92 101 109 114 117 119 118 115 108 102 96 93 93 97 101 101 98 97 98 98 98 99 101 100 99 99 96 97 94 93 93 94 93 93 93 93
43 40 36 36 40 43 54 65 68 77 86 93 98 103 112 117 110 108 104 99 92 90 90 89 93 98 99 100 103 103 104 104 103 105 100 98 98 94 96 94 97 100 100 98
46 45 42 40 39 43 43 46 50 60 68 72 76 80 86 97 107 111 110 106 104 100 95 91 89 91 98 101 103 104 105 107 108 111 107 103 99 96 99 100 98 100 94 93
45 46 46 46 43 42 43 41 44 47 52 59 63 67 71 79 87 97 108 112 112 108 103 102 99 100 93 97 99 102 104 105 107 108 108 107 103 99 100 105 97 98 100 106
43 46 49 48 46 46 43 41 44 41 45 49 53 57 63 68 75 85 95 105 112 113 112 113 107 100 99 98 97 98 101 102 105 106 106 103 106 102 103 107 106 105 110 111

GFSNGP_250_spd_042.txt.gz
Wind_Speed
122 118 116 111 106 99 92 81 76 72 75 74 71 67 65 59 56 53 49 46 43 41 42 41 40 38 37 38 36 34 33 38 41 42 42 40 40 39 37 36 35 34 31 26
121 117 115 112 107 100 93 87 81 79 79 75 74 68 64 60 54 51 49 45 42 41 44 42 43 43 40 41 40 38 37 35 37 39 41 44 44 42 42 40 38 36 35 32
119 119 118 114 106 100 94 90 86 85 81 77 74 68 63 57 54 56 51 47 44 44 45 44 43 45 43 44 44 44 40 38 36 36 43 42 43 44 43 42 41 38 38 36
122 117 116 109 107 101 96 92 88 88 83 82 75 67 63 59 60 60 53 49 47 46 46 45 44 44 44 44 46 47 45 42 41 37 37 41 44 46 45 44 42 42 40 38
120 114 112 111 109 104 98 93 91 93 87 83 75 67 63 62 60 59 56 51 49 48 47 45 44 43 44 45 46 47 47 45 44 43 36 37 42 42 47 45 44 42 41 40
116 114 113 109 105 103 95 93 93 96 90 84 77 70 65 62 59 58 55 53 51 49 47 47 48 45 44 47 47 48 50 49 47 44 41 38 38 38 37 46 46 45 43 43
115 110 108 104 102 100 100 96 93 93 91 86 78 72 66 63 60 57 56 55 54 51 49 48 47 46 45 46 50 52 51 53 53 48 45 42 36 34 37 41 47 49 48 46
112 108 106 103 99 101 99 95 94 92 90 86 81 75 68 64 61 58 57 56 54 51 51 48 47 48 46 45 49 49 50 50 53 51 49 46 41 38 35 39 45 52 51 50
110 108 103 102 98 96 97 94 94 91 89 83 79 74 69 64 62 59 57 55 54 54 52 49 48 48 45 44 42 45 49 51 52 54 53 51 48 45 42 37 41 46 51 51
103 99 98 99 96 93 95 95 94 90 88 82 77 73 67 64 62 62 57 57 56 56 55 51 49 48 47 46 44 46 46 47 48 51 54 56 54 51 48 46 42 43 49 54
98 94 95 95 92 91 92 94 93 90 89 84 79 75 69 65 63 63 62 60 59 58 56 52 52 51 50 47 45 45 47 48 50 53 54 54 56 55 54 54 53 49 47 47
86 91 94 94 93 90 90 92 91 91 91 88 83 77 73 69 65 61 60 59 61 59 57 54 54 55 53 50 49 48 47 47 47 49 53 54 55 58 58 57 56 54 51 48
97 93 92 94 92 88 86 91 92 92 93 91 86 83 78 75 71 66 63 62 60 59 59 57 59 60 58 55 53 51 50 47 46 46 48 50 54 55 56 58 57 54 53 51
82 87 89 89 89 88 86 88 90 91 93 91 87 81 83 80 78 73 69 67 66 64 64 62 62 63 62 59 57 54 53 51 48 46 44 46 51 54 57 59 60 60 60 58
86 92 92 92 93 98 93 89 91 94 93 93 90 87 83 83 84 81 77 73 71 70 69 68 67 67 65 64 62 59 57 55 52 50 49 47 45 46 48 51 52 52 52 53
97 95 96 96 99 95 90 89 91 94 96 92 90 90 89 85 82 84 81 80 77 75 74 73 72 70 69 67 64 63 62 61 60 59 57 54 52 50 49 48 47 47 46 45
93 93 96 98 100 98 99 96 93 95 96 96 93 92 94 93 90 83 85 87 84 82 80 78 76 74 73 71 70 68 67 66 67 66 65 63 61 59 58 58 56 53 52 52
90 94 98 96 98 101 101 100 98 95 97 95 97 92 85 92 94 94 92 86 88 89 86 83 83 82 80 79 77 76 75 75 74 72 71 70 69 69 67 66 64 63 62 61
82 89 94 96 98 102 106 107 108 105 103 102 101 95 97 88 95 101 91 96 92 91 91 90 87 87 88 87 85 85 84 83 81 80 78 77 73 72 71 70 71 71 70 69
72 83 90 95 97 102 108 110 108 107 104 104 102 100 105 107 97 101 107 100 73 99 98 97 95 93 92 92 91 90 89 88 86 80 79 78 77 78 80 80 79 77 76 74
54 71 82 94 99 101 104 107 110 111 111 110 111 113 110 111 109 110 110 116 114 112 110 108 104 101 100 96 96 95 95 94 92 86 83 84 83 83 83 83 82 81 80 79
51 59 68 82 96 98 100 101 104 109 114 117 120 116 115 115 115 115 114 118 121 119 120 118 114 109 104 103 101 101 101 101 99 95 90 90 91 90 89 90 90 89 85 86
51 54 60 68 75 84 93 98 101 103 109 116 117 117 117 117 119 118 115 114 114 115 121 118 117 115 111 108 106 105 101 104 104 102 97 96 94 95 95 96 96 94 92 91
51 53 56 59 63 66 71 77 86 98 105 110 113 119 121 121 122 121 117 113 113 109 106 108 108 110 115 115 112 110 106 111 107 106 104 102 101 101 100 104 105 102 99 97
53 54 55 55 56 59 65 67 69 78 85 97 108 114 119 123 123 122 120 119 116 112 111 109 106 107 107 114 115 116 113 112 113 115 110 109 105 108 107 108 108 109 107 105
47 52 56 58 59 57 56 58 66 71 73 80 88 96 105 112 118 120 122 120 115 115 115 116 113 107 113 106 106 112 112 112 117 120 116 115 112 111 108 108 108 110 112 111
42 46 50 54 57 58 59 58 57 59 64 68 74 80 85 89 93 100 108 114 116 117 116 118 121 119 118 115 114 114 107 109 110 111 112 113 113 112 111 109 104 108 115 115

GFSNGP_250_spd_045.txt.gz
Wind_Speed
117 126 129 123 120 116 103 94 86 80 76 82 84 78 74 68 62 54 47 43 40 37 37 37 35 33 32 31 31 33 32 32 33 36 34 35 36 35 33 32 31 30 30 29
110 123 123 119 121 115 104 96 88 83 81 86 86 81 74 65 58 53 48 45 44 46 44 41 40 39 38 35 35 35 36 37 35 33 34 37 36 39 37 36 35 35 34 32
102 119 119 117 117 113 105 101 93 86 85 87 87 81 76 70 61 56 52 50 50 49 47 46 43 41 40 38 35 36 38 38 36 35 31 34 36 38 40 40 39 40 37 37
95 112 108 106 116 115 108 100 97 90 90 90 83 79 77 71 64 58 57 55 55 51 48 46 44 40 37 36 35 36 37 40 40 38 36 31 32 40 38 39 43 43 41 39
87 101 104 107 116 112 109 103 100 96 96 89 80 81 80 72 65 61 62 60 56 52 49 47 45 40 39 40 39 38 39 41 42 41 39 38 37 34 35 40 40 45 44 43
80 91 100 95 107 109 109 106 102 101 99 91 83 84 79 73 66 66 65 63 55 55 53 49 44 42 41 40 41 41 41 43 43 44 43 42 40 36 33 35 40 41 47 47
75 88 95 95 105 109 113 106 103 104 101 94 84 84 80 74 69 67 68 59 56 56 53 50 48 45 43 41 43 44 43 45 44 44 45 44 42 38 38 36 36 41 43 48
75 89 96 96 105 110 107 108 104 103 100 95 89 85 81 77 73 70 65 60 58 56 54 51 49 46 45 43 46 47 45 44 44 46 46 46 45 42 41 41 40 39 42 45
76 93 95 95 102 106 107 108 106 104 99 96 92 87 83 80 76 72 67 63 61 58 56 53 51 49 47 45 46 48 48 48 46 47 47 47 49 49 47 47 45 43 41 42
76 92 89 97 100 104 106 107 106 103 98 97 92 88 85 82 79 73 68 67 64 61 58 54 53 50 47 46 51 50 47 46 47 48 48 49 50 51 53 53 51 49 47 45
80 89 88 95 100 102 104 104 104 101 100 97 92 88 85 82 77 74 71 71 67 64 60 57 54 52 51 50 51 51 44 46 45 44 46 47 50 53 56 56 54 53 52 50
81 85 95 98 103 102 103 102 101 100 101 98 91 89 84 84 77 76 73 70 68 66 64 63 60 56 52 51 51 49 45 45 42 40 42 45 47 49 52 55 56 56 56 56
76 85 95 98 99 100 101 100 99 100 102 99 94 88 87 84 82 77 75 69 67 67 66 65 62 59 52 52 51 51 48 43 43 46 37 27 47 48 48 51 54 56 57 58
72 81 85 95 97 98 104 99 96 97 100 99 95 91 86 85 83 83 75 76 74 70 67 66 64 61 58 55 54 48 51 46 37 50 49 54 50 50 52 49 49 51 54 56
71 76 84 91 95 94 93 96 97 97 98 99 98 93 88 88 86 85 82 80 79 75 73 69 64 63 63 61 60 59 57 56 58 62 58 53 53 56 53 48 47 49 51 53
79 91 92 92 92 92 99 99 96 96 97 100 99 96 92 90 90 87 86 84 82 77 76 74 70 66 66 65 63 62 61 59 60 61 59 60 60 58 53 52 50 49 50 51
76 83 92 93 92 94 95 98 97 98 97 98 99 98 98 94 92 92 91 91 88 84 80 78 78 74 71 70 68 67 66 65 66 65 65 63 61 59 56 54 53 51 51 50
77 84 93 97 98 99 102 101 107 102 98 101 101 101 102 103 100 97 96 95 92 92 89 86 83 81 79 77 75 73 72 72 71 69 69 67 65 64 62 61 60 59 58 57
73 78 92 97 101 102 102 107 108 107 103 100 102 104 105 102 100 102 99 96 94 94 93 93 91 85 84 83 82 81 79 76 75 74 74 73 71 70 70 69 69 67 66 65
66 73 79 92 99 102 104 107 109 108 108 103 103 103 104 111 109 104 103 102 100 99 97 96 94 93 91 90 88 86 84 82 80 80 80 80 79 78 77 75 75 74 73 72
62 66 73 80 91 98 102 106 109 111 111 109 107 108 112 115 112 110 108 104 105 105 101 100 95 94 95 96 93 91 89 89 88 88 87 88 88 86 83 82 81 79 77 77
54 60 66 73 79 89 97 102 106 110 113 113 113 112 112 109 107 108 109 108 107 106 106 103 102 104 101 100 96 96 95 94 95 95 96 96 95 94 92 90 88 85 83 82
47 53 59 66 71 77 86 97 105 108 111 111 115 115 113 110 108 108 109 109 112 115 120 114 111 109 104 100 98 101 102 100 102 101 101 101 101 101 100 98 95 91 89 87
51 51 54 58 62 69 77 82 94 104 107 109 109 115 116 114 112 110 110 113 116 119 121 119 117 116 114 116 113 112 106 106 107 105 112 106 111 107 103 101 101 100 100 96
48 52 56 57 60 65 67 74 81 88 96 102 105 107 112 117 116 115 113 113 114 115 117 118 118 120 118 116 117 114 112 113 114 118 122 120 112 107 107 107 106 105 104 105
41 47 50 56 59 61 64 69 72 76 79 83 90 98 103 108 115 118 120 118 117 116 116 114 115 115 114 120 124 123 120 120 114 117 116 112 114 114 111 112 111 111 111 112
34 39 45 50 53 58 63 65 67 69 71 72 75 77 86 99 105 108 117 125 123 122 121 120 120 118 117 114 114 116 117 120 122 122 121 123 123 119 117 116 116 116 116 118

GFSNGP_250_spd_048.txt.gz
Wind_Speed
102 110 108 115 124 125 119 110 101 94 89 85 83 86 85 80 76 70 65 58 51 49 45 42 41 40 38 34 29 29 31 32 31 31 29 28 31 34 34 33 31 29 28 26
94 107 105 110 120 126 121 113 107 98 89 85 92 89 88 83 75 70 66 58 56 52 48 44 43 44 41 38 34 33 33 34 33 32 30 29 32 35 36 37 35 33 33 30
84 98 106 109 112 121 120 115 110 100 94 95 96 89 87 80 77 73 67 59 55 52 50 49 47 47 43 42 37 36 34 34 34 35 33 32 32 34 37 37 34 38 37 36
73 92 97 95 105 116 119 117 113 109 100 96 99 94 87 84 79 71 68 62 60 55 54 56 53 49 46 41 38 37 34 33 34 36 38 37 34 33 36 38 38 36 37 39
69 88 85 97 100 111 118 114 114 110 103 97 100 99 94 86 83 71 71 66 62 59 60 60 54 51 48 44 40 38 35 35 34 35 37 39 38 40 38 34 35 35 35 36
68 70 71 88 93 100 114 115 115 111 108 101 102 98 95 86 82 76 73 71 66 65 66 61 57 54 50 46 42 41 39 39 38 36 36 41 42 41 40 38 35 30 34 41
53 57 66 77 89 94 104 110 113 113 109 107 105 101 93 86 81 75 73 72 70 71 68 66 61 56 52 49 47 46 39 38 38 37 38 39 40 41 42 40 40 39 37 36
50 59 66 75 82 90 98 106 115 116 113 113 106 98 92 90 79 75 74 78 78 76 71 65 59 58 57 54 51 46 41 40 39 40 39 38 40 41 42 42 42 42 41 41
44 52 61 69 71 86 98 108 116 115 117 114 107 92 90 87 82 77 75 76 80 79 70 64 64 61 61 54 50 46 44 43 39 41 42 40 41 41 43 44 45 45 44 42
43 49 54 61 73 87 98 107 116 117 118 112 104 97 89 89 88 84 77 78 81 73 68 69 67 63 59 55 53 49 46 45 43 42 44 45 43 43 43 44 46 47 48 47
45 48 54 64 75 84 95 105 115 118 116 111 105 100 93 91 86 83 80 74 75 71 71 69 67 63 60 58 55 53 49 46 44 44 42 43 43 43 45 46 47 48 51 52
48 50 54 63 72 77 92 101 114 116 115 109 107 102 97 94 88 84 81 75 71 72 73 70 67 64 62 60 59 54 50 47 46 42 42 43 42 42 45 48 50 50 51 53
53 55 56 74 88 91 98 102 111 113 114 110 109 100 96 98 91 83 80 73 71 68 71 71 70 67 63 63 60 58 53 50 55 48 45 44 40 40 43 47 51 50 49 50
59 60 68 75 82 86 94 89 109 110 110 110 108 98 90 97 94 89 76 74 71 67 63 64 67 71 69 67 67 61 57 41 48 46 48 45 37 41 46 51 41 46 45 47
61 60 70 79 92 100 105 108 109 109 108 110 108 104 95 94 95 94 89 77 79 73 68 61 61 67 70 69 65 65 61 62 66 56 50 45 41 44 54 47 61 48 46 43
62 67 68 76 94 98 99 97 105 110 110 109 112 107 91 88 96 95 92 87 83 81 73 69 69 73 69 67 73 69 66 65 60 53 50 45 53 53 62 58 58 56 59 50
55 64 67 68 87 96 109 107 107 109 107 110 110 111 104 92 92 95 95 92 92 89 86 79 73 75 82 78 74 72 70 71 69 65 58 60 64 60 70 73 69 74 68 58
48 58 66 74 90 97 99 101 101 107 108 109 113 111 113 106 98 96 97 96 96 95 97 93 91 91 86 86 82 81 79 78 77 76 73 75 80 77 78 78 80 75 69 65
46 56 67 74 86 100 101 106 107 107 109 110 111 114 111 111 98 99 99 98 100 100 100 101 101 102 96 93 91 86 84 83 80 81 82 82 83 81 80 79 86 82 78 72
47 50 60 74 95 105 107 106 107 109 111 110 112 114 116 110 108 105 98 101 102 100 101 103 102 100 97 95 95 94 91 91 88 85 82 82 85 84 86 89 89 86 83 80
49 53 51 64 80 94 105 109 109 101 112 114 114 116 115 115 110 102 103 105 101 105 105 104 103 102 101 100 99 96 94 92 87 88 89 88 86 86 86 86 87 87 86 84
52 53 55 61 71 90 105 108 114 116 115 114 116 116 116 117 116 113 110 106 107 105 107 107 105 104 104 104 102 99 98 95 92 91 91 89 89 89 88 86 85 83 83 83
47 51 55 58 67 80 100 107 110 114 114 114 115 116 116 117 118 118 116 114 113 113 107 105 103 105 106 105 104 100 99 98 99 100 99 98 97 95 93 92 90 91 91 92
49 49 53 57 61 69 86 103 109 110 111 113 116 117 119 119 119 118 119 118 116 116 114 111 111 111 112 110 108 109 106 105 105 105 102 97 98 98 97 97 96 95 96 96
46 50 53 55 58 62 70 84 101 110 113 115 114 114 116 119 120 120 120 121 121 120 117 114 115 114 113 112 115 113 111 110 111 110 109 107 106 105 102 100 99 102 101 99
40 46 51 54 58 59 61 68 78 92 105 111 113 113 115 116 115 118 119 120 121 121 121 121 118 115 115 115 112 112 112 109 112 112 110 110 109 109 107 107 108 103 109 111
32 38 44 50 54 58 61 62 65 72 82 93 105 109 110 112 113 116 118 120 119 121 121 121 121 121 119 119 118 117 118 116 114 114 114 113 110 108 109 108 107 109 111 112